This is the latest recevied weather packets stored in our database for station/object N6GPM. If no packets are shown the sender has not sent any weather packets the latest 10 day(s).
| Time | Temp. | Humidity | Pressure | Rain* | Wind** | Luminosity | Snow |
|---|---|---|---|---|---|---|---|
| 1778120312 | 20° C | 60% | 1019.9 hPa | 0 mm | - | 14 W/m² | - |
| 1778120007 | 20° C | 60% | 1019.6 hPa | 0 mm | - | 18 W/m² | - |
| 1778119706 | 20.56° C | 59% | 1019.6 hPa | 0 mm | - | 21 W/m² | - |
| 1778119402 | 20.56° C | 59% | 1019.3 hPa | 0 mm | - | 25 W/m² | - |
| 1778119099 | 20.56° C | 58% | 1019.4 hPa | 0 mm | - | 30 W/m² | - |
| 1778118797 | 20.56° C | 58% | 1019.5 hPa | 0 mm | - | 34 W/m² | - |
| 1778118494 | 21.11° C | 56% | 1019.4 hPa | 0 mm | - | 38 W/m² | - |
| 1778118190 | 21.11° C | 56% | 1019.4 hPa | 0 mm | - | 34 W/m² | - |
| 1778117886 | 21.67° C | 55% | 1019.3 hPa | 0 mm | - | 62 W/m² | - |
| 1778117584 | 21.67° C | 55% | 1019.3 hPa | 0 mm | - | 72 W/m² | - |
| 1778117282 | 21.67° C | 54% | 1019.2 hPa | 0 mm | - | 42 W/m² | - |
| 1778116977 | 21.67° C | 53% | 1019.5 hPa | 0 mm | - | 42 W/m² | - |
| 1778116675 | 21.67° C | 54% | 1018.9 hPa | 0 mm | - | 117 W/m² | - |
| 1778116371 | 22.22° C | 53% | 1019.4 hPa | 0 mm | - | 138 W/m² | - |
| 1778116070 | 22.22° C | 53% | 1019.2 hPa | 0 mm | - | 147 W/m² | - |
| 1778115767 | 22.22° C | 52% | 1019.2 hPa | 0 mm | - | 167 W/m² | - |
| 1778115464 | 22.22° C | 52% | 1019 hPa | 0 mm | - | 58 W/m² | - |
| 1778115161 | 22.22° C | 52% | 1019 hPa | 0 mm | - | 183 W/m² | - |
| 1778114857 | 22.78° C | 52% | 1018.9 hPa | 0 mm | - | 68 W/m² | - |
| 1778114555 | 22.78° C | 51% | 1018.9 hPa | 0 mm | - | 229 W/m² | - |
| 1778114251 | 22.78° C | 51% | 1018.9 hPa | 0 mm | - | 239 W/m² | - |
| 1778113946 | 22.78° C | 50% | 1019 hPa | 0 mm | - | 255 W/m² | - |
| 1778113643 | 22.78° C | 51% | 1019.2 hPa | 0 mm | - | 261 W/m² | - |
| 1778113339 | 22.78° C | 50% | 1018.9 hPa | 0 mm | - | 287 W/m² | - |
| 1778113036 | 22.78° C | 50% | 1018.6 hPa | 0 mm | - | 299 W/m² | - |
* Rain latest hour (hover to see other rain measurements)
** Current wind speed in m/s (hover to see current wind gust speed)